Leeming, United Kingdom

6:08 AM GMT on December 16, 2017 (GMT +0000)
Leeming Air Base

Weather History for EGXE - December, 2012

Change the Weather History Date:

Sunday, December 16, 2012

  Actual Average Record
Temperature  
Mean Temperature 40 °F -  
Max Temperature 44 °F 43 °F - ()
Min Temperature 35 °F 33 °F - ()
Degree Days  
Heating Degree Days 26    
Moisture  
Dew Point 37 °F    
Average Humidity 97    
Maximum Humidity 100    
Minimum Humidity 87    
Precipitation  
Precipitation 0.03 in 0.07 in - ()
Sea Level Pressure  
Sea Level Pressure 29.40 in    
Wind  
Wind Speed 7 mph ()    
Max Wind Speed 10 mph    
Max Gust Speed -    
Visibility 2.8 miles    
Events Fog , Rain    
T = Trace of Precipitation, MM = Missing Value Source: Averaged Metar Reports

Daily Weather History Graph

Daily Weather History Graph

Search for Another Location

Airport or City:

Trip Planner

Search our weather history database for the weather conditions in past years. The results will help you decide how hot, cold, wet, or windy it might be!

Date:

Astronomy

Dec. 16, 2012 Rise Set
Actual Time 8:21 AM GMT 3:42 PM GMT
Civil Twilight 7:37 AM GMT 4:26 PM GMT
Nautical Twilight 6:50 AM GMT 5:12 PM GMT
Astronomical Twilight 6:07 AM GMT 5:56 PM GMT
Moon 10:19 AM GMT 8:09 PM GMT
Length of Visible Light 8h 48m
Length of Day
7h 20m
Waxing Crescent, 14% of the Moon is Illuminated
Dec 16
Waxing Crescent
Dec 20
First Quarter
Dec 28
Full
Jan 5
Last Quarter
Jan 11
New

Hourly Weather History & Observations

Time (GMT) Temp. Windchill Dew Point Humidity Pressure Visibility Wind Dir Wind Speed Gust Speed Precip Events Conditions
12:50 AM 39.2 °F 33.6 °F 37.4 °F 93% 29.33 in 3.1 mi ESE 8.1 mph - N/A   Partly Cloudy
1:50 AM 39.2 °F 35.9 °F 37.4 °F 93% 29.33 in 3.1 mi ESE 4.6 mph - N/A   Mostly Cloudy
2:50 AM 38 °F - 37 °F 95% 29.35 in 3 mi SE 6.9 mph - -   Mist
2:50 AM 37.4 °F 32.1 °F 37.4 °F 100% 29.33 in 3.1 mi SE 6.9 mph - N/A   Mostly Cloudy
3:50 AM 37.4 °F 31.4 °F 37.4 °F 100% 29.36 in 3.1 mi SSE 8.1 mph - N/A   Mostly Cloudy
4:50 AM 39.2 °F 32.5 °F 37.4 °F 93% 29.36 in 3.7 mi SSE 10.4 mph - N/A   Mostly Cloudy
5:50 AM 37 °F - 36 °F 97% 29.39 in 3 mi SE 9.2 mph - -   Mist
5:50 AM 37.4 °F 30.8 °F 37.4 °F 100% 29.39 in 3.1 mi SE 9.2 mph - N/A   Scattered Clouds
6:50 AM 35.6 °F 30.7 °F 35.6 °F 100% 29.39 in 2.5 mi SE 5.8 mph - N/A   Mostly Cloudy
7:50 AM 37.4 °F 30.8 °F 35.6 °F 93% 29.39 in 3.1 mi SE 9.2 mph - N/A   Mostly Cloudy
8:50 AM 37 °F - 36 °F 94% 29.43 in 3 mi SSE 6.9 mph - -   Mist
8:50 AM 37.4 °F 32.1 °F 35.6 °F 93% 29.42 in 3.1 mi SSE 6.9 mph - N/A   Scattered Clouds
9:50 AM 41.0 °F 35.2 °F 37.4 °F 87% 29.42 in 5.6 mi SSE 9.2 mph - N/A   Haze
10:50 AM 39.2 °F 35.0 °F 37.4 °F 93% 29.44 in 5.0 mi SE 5.8 mph - N/A   Haze
11:50 AM 41 °F - 39 °F 90% 29.44 in 5 mi SSE 10.4 mph - -   Mist
11:50 AM 41.0 °F 34.7 °F 39.2 °F 93% 29.42 in 5.0 mi SSE 10.4 mph - N/A   Haze
12:50 PM 42.8 °F 37.5 °F 41.0 °F 93% 29.42 in 5.6 mi SE 9.2 mph - N/A   Haze
1:50 PM 41.0 °F 35.2 °F 39.2 °F 93% 29.42 in 4.3 mi SE 9.2 mph - N/A   Haze
2:50 PM 38 °F - 38 °F 99% 29.44 in 0 mi ESE 3.5 mph - - Fog Fog
2:50 PM 39.2 °F 37.0 °F 37.4 °F 93% 29.42 in 0.3 mi ESE 3.5 mph - N/A Fog Fog
3:50 PM 37.4 °F 32.1 °F 37.4 °F 100% 29.42 in - SE 6.9 mph - N/A   Mostly Cloudy
4:50 PM 35.6 °F 32.8 °F 35.6 °F 100% 29.42 in 1.4 mi South 3.5 mph - N/A   Scattered Clouds
5:50 PM 36 °F - 36 °F 98% 29.43 in 1 mi South 5.8 mph - - Fog Fog
5:50 PM 35.6 °F 30.7 °F 35.6 °F 100% 29.42 in 0.6 mi South 5.8 mph - N/A   Mostly Cloudy
6:50 PM 37.4 °F 32.1 °F 37.4 °F 100% 29.42 in - SSE 6.9 mph - N/A Fog Fog
7:50 PM 35.6 °F 29.2 °F 35.6 °F 100% 29.39 in 1.7 mi SSE 8.1 mph - N/A   Mostly Cloudy
8:50 PM 36 °F - 36 °F 100% 29.40 in 2 mi South 5.8 mph - -   Mist
8:50 PM 37.4 °F 32.8 °F 37.4 °F 100% 29.39 in 1.6 mi South 5.8 mph - N/A   Mostly Cloudy
9:50 PM 39.2 °F 33.0 °F 39.2 °F 100% 29.39 in 1.4 mi SSE 9.2 mph - N/A   Overcast
10:50 PM 39.2 °F 33.0 °F 39.2 °F 100% 29.36 in 1.7 mi SE 9.2 mph - N/A Rain Rain Showers
11:50 PM 39 °F - 39 °F 99% 29.38 in 2 mi SSE 8.1 mph - - Rain Light Rain
11:50 PM 39.2 °F 33.6 °F 39.2 °F 100% 29.36 in 1.9 mi SSE 8.1 mph - N/A Rain Light Rain